{"data":{"norad_id":65293,"epoch":"2026-09-19T09:12:59.446368Z","epoch_age_seconds":213877,"freshness":"STALE","line1":"1 65293U 25184W   26262.38402137  .00017169  00000+0  53275-3 0  9999","line2":"2 65293  97.2824 310.3706 0000907 100.8965 259.2379 15.33454840 60554","mean_motion":15.3345484,"eccentricity":9.07e-5,"inclination_deg":97.2824,"raan_deg":310.3706,"arg_perigee_deg":100.8965,"mean_anomaly_deg":259.2379,"bstar":0.00053275,"rev_number":6055,"period_min":93.905602071725,"perigee_km":464.89317858129,"apogee_km":466.13461685414,"semimajor_km":6843.6508977177,"source":"CELESTRAK","updated_at":"2026-09-21T09:00:35.567865Z"}}